PISAT

Last updated on Sat Sep 05 2026 00:03:37 GMT+0000 (Coordinated Universal Time)

1 41784U 16059B 26247.42686387 .00000491 00000+0 91214-4 0 9994 2 41784 97.8239 244.5010 0027896 314.6392 45.2539 14.69109863531374
UTC large
Height (km)
Speed (km/s)
/
Latitude / Longitude
Inclination (degrees)
Orbital Period (minutes)
Azimuth
Elevation
Range (km)
Doppler Factor

Next 0 passes for location: London (51.5072 / 0.1276)

No passes found over London.
PISAT